When you browse on this site, cookies collect data to enhance your experience and personalize the content and advertising you see.
Visit our Privacy Policy to learn more. By continuing to use the site, you agree to this use of cookies and data.
  • En España
  • Lista de países
  • Para 7 días
  • Temperatura del agua
  • El tiempo en el mapa
  • Informadores
  • user-avatar
    Iniciar sesión

    Tiempo cada hora Frankfurt am Mein

    Hoy, 26 Mayo, Martes

    Tiempo Temperatura Precipitaciones Viento Presión Humedad
    00:00 +9°C° 0 mm 1 mps 734 mmHg 85%
    01:00 +8°C° 0 mm 1 mps 734 mmHg 88%
    02:00 +8°C° 0 mm 1 mps 734 mmHg 89%
    03:00 +7°C° 0 mm 1 mps 734 mmHg 90%
    04:00 +7°C° 0 mm 1 mps 734 mmHg 91%
    05:00 +8°C° 0 mm 1 mps 734 mmHg 88%
    06:00 +9°C° 0 mm 1 mps 734 mmHg 85%
    07:00 +10°C° 0 mm 1 mps 734 mmHg 81%
    08:00 +12°C° 0 mm 1 mps 735 mmHg 73%
    09:00 +13°C° 0 mm 1 mps 735 mmHg 65%
    10:00 +15°C° 0 mm 2 mps 735 mmHg 56%
    11:00 +16°C° 0 mm 2 mps 735 mmHg 53%
    12:00 +17°C° 0 mm 2 mps 735 mmHg 49%
    13:00 +18°C° 0 mm 2 mps 735 mmHg 45%
    14:00 +19°C° 0 mm 2 mps 735 mmHg 46%
    15:00 +19°C° 0 mm 2 mps 735 mmHg 46%
    16:00 +19°C° 0 mm 2 mps 734 mmHg 47%
    17:00 +18°C° 0 mm 2 mps 734 mmHg 52%
    18:00 +17°C° 0 mm 2 mps 734 mmHg 58%
    19:00 +16°C° 0 mm 2 mps 734 mmHg 64%
    20:00 +15°C° 0 mm 2 mps 734 mmHg 68%
    21:00 +13°C° 0 mm 1 mps 734 mmHg 73%
    22:00 +11°C° 0 mm 1 mps 734 mmHg 78%
    23:00 +11°C° 0 mm 1 mps 734 mmHg 80%

    Mañana, 27 Mayo, Miércoles

    Tiempo Temperatura Precipitaciones Viento Presión Humedad
    00:00 +10°C° 0 mm 1 mps 734 mmHg 82%
    01:00 +9°C° 0 mm 1 mps 734 mmHg 84%
    02:00 +9°C° 0 mm 1 mps 734 mmHg 85%
    03:00 +9°C° 0 mm 1 mps 734 mmHg 86%
    04:00 +8°C° 0 mm 1 mps 733 mmHg 87%
    05:00 +10°C° 0 mm 1 mps 734 mmHg 82%
    06:00 +10°C° 0 mm 0 mps 734 mmHg 78%
    07:00 +12°C° 0 mm 0 mps 734 mmHg 73%
    08:00 +14°C° 0 mm 0 mps 734 mmHg 65%
    09:00 +18°C° 0 mm 1 mps 734 mmHg 57%
    10:00 +20°C° 0 mm 1 mps 735 mmHg 49%
    11:00 +21°C° 0 mm 1 mps 734 mmHg 46%
    12:00 +22°C° 0 mm 1 mps 734 mmHg 44%
    13:00 +22°C° 0 mm 1 mps 734 mmHg 41%
    14:00 +22°C° 0 mm 1 mps 733 mmHg 41%
    15:00 +22°C° 0 mm 1 mps 733 mmHg 42%
    16:00 +22°C° 0 mm 1 mps 733 mmHg 43%
    17:00 +21°C° 0 mm 1 mps 733 mmHg 50%
    18:00 +19°C° 0 mm 2 mps 732 mmHg 56%
    19:00 +18°C° 0 mm 2 mps 732 mmHg 63%
    20:00 +17°C° 0 mm 2 mps 732 mmHg 69%
    21:00 +15°C° 0 mm 2 mps 732 mmHg 75%
    22:00 +13°C° 0 mm 3 mps 733 mmHg 81%
    23:00 +12°C° 0 mm 3 mps 733 mmHg 82%

    Pasado mañana, 28 Mayo, Jueves

    Tiempo Temperatura Precipitaciones Viento Presión Humedad
    00:00 +11°C° 0 mm 3 mps 733 mmHg 84%
    01:00 +10°C° 0 mm 3 mps 733 mmHg 86%
    02:00 +9°C° 0 mm 3 mps 733 mmHg 87%
    03:00 +8°C° 0 mm 2 mps 732 mmHg 89%
    04:00 +7°C° 0 mm 2 mps 732 mmHg 90%
    05:00 +8°C° 0 mm 3 mps 733 mmHg 85%
    06:00 +8°C° 0 mm 3 mps 733 mmHg 81%
    07:00 +9°C° 0 mm 3 mps 733 mmHg 76%
    08:00 +10°C° 0 mm 3 mps 733 mmHg 66%
    09:00 +12°C° 0 mm 3 mps 733 mmHg 56%
    10:00 +13°C° 0 mm 3 mps 733 mmHg 46%
    11:00 +14°C° 0 mm 3 mps 733 mmHg 42%
    12:00 +17°C° 0 mm 3 mps 733 mmHg 38%
    13:00 +18°C° 0 mm 3 mps 732 mmHg 35%
    14:00 +18°C° 0 mm 3 mps 732 mmHg 36%
    15:00 +18°C° 0 mm 3 mps 732 mmHg 38%
    16:00 +18°C° 0 mm 3 mps 731 mmHg 39%
    17:00 +17°C° 0 mm 3 mps 731 mmHg 45%
    18:00 +16°C° 0 mm 3 mps 731 mmHg 50%
    19:00 +14°C° 0 mm 3 mps 731 mmHg 56%
    20:00 +12°C° 0 mm 3 mps 731 mmHg 63%
    21:00 +10°C° 0 mm 2 mps 731 mmHg 69%
    22:00 +9°C° 0 mm 2 mps 731 mmHg 76%
    23:00 +8°C° 0 mm 2 mps 731 mmHg 80%

    29 Mayo, Viernes

    Tiempo Temperatura Precipitaciones Viento Presión Humedad
    00:00 +7°C° 0 mm 2 mps 731 mmHg 83%
    01:00 +6°C° 0 mm 2 mps 731 mmHg 87%
    02:00 +6°C° 0 mm 2 mps 731 mmHg 88%
    03:00 +5°C° 0 mm 2 mps 730 mmHg 89%
    04:00 +5°C° 0 mm 2 mps 730 mmHg 90%
    05:00 +6°C° 0 mm 2 mps 730 mmHg 85%
    06:00 +7°C° 0 mm 2 mps 730 mmHg 80%
    07:00 +8°C° 0 mm 2 mps 730 mmHg 74%
    08:00 +10°C° 0 mm 2 mps 730 mmHg 67%
    09:00 +13°C° 0 mm 2 mps 730 mmHg 59%
    10:00 +15°C° 0 mm 2 mps 730 mmHg 51%
    11:00 +16°C° 0 mm 2 mps 730 mmHg 47%
    12:00 +17°C° 0 mm 3 mps 729 mmHg 43%
    13:00 +18°C° 0 mm 3 mps 729 mmHg 40%
    14:00 +18°C° 0 mm 3 mps 729 mmHg 40%
    15:00 +19°C° 0 mm 3 mps 728 mmHg 41%
    16:00 +19°C° 0 mm 3 mps 728 mmHg 41%
    17:00 +18°C° 0 mm 3 mps 728 mmHg 47%
    18:00 +17°C° 0 mm 3 mps 728 mmHg 53%
    19:00 +16°C° 0 mm 3 mps 727 mmHg 58%
    20:00 +13°C° 0 mm 3 mps 727 mmHg 63%
    21:00 +12°C° 0 mm 2 mps 728 mmHg 68%
    22:00 +10°C° 0 mm 2 mps 728 mmHg 73%
    23:00 +9°C° 0 mm 2 mps 728 mmHg 76%

    30 Mayo, Sábado

    Tiempo Temperatura Precipitaciones Viento Presión Humedad
    00:00 +8°C° 0 mm 2 mps 728 mmHg 78%
    01:00 +7°C° 0 mm 2 mps 727 mmHg 80%
    02:00 +7°C° 0 mm 2 mps 727 mmHg 82%
    03:00 +6°C° 0 mm 2 mps 727 mmHg 84%
    04:00 +6°C° 0 mm 2 mps 727 mmHg 86%
    05:00 +7°C° 0 mm 2 mps 727 mmHg 81%
    06:00 +9°C° 0 mm 2 mps 727 mmHg 77%
    07:00 +10°C° 0 mm 2 mps 728 mmHg 72%
    08:00 +13°C° 0 mm 2 mps 728 mmHg 65%
    09:00 +15°C° 0 mm 2 mps 728 mmHg 57%
    10:00 +16°C° 0 mm 2 mps 728 mmHg 50%
    11:00 +17°C° 0 mm 2 mps 728 mmHg 47%
    12:00 +18°C° 0 mm 2 mps 728 mmHg 43%
    13:00 +19°C° 0 mm 2 mps 727 mmHg 40%
    14:00 +19°C° 0 mm 2 mps 727 mmHg 41%
    15:00 +19°C° 0 mm 2 mps 727 mmHg 41%
    16:00 +20°C° 0 mm 2 mps 727 mmHg 42%
    17:00 +19°C° 0 mm 2 mps 726 mmHg 48%
    18:00 +18°C° 0 mm 2 mps 726 mmHg 54%
    19:00 +17°C° 0 mm 2 mps 726 mmHg 60%
    20:00 +15°C° 0 mm 2 mps 726 mmHg 66%
    21:00 +13°C° 0 mm 2 mps 726 mmHg 71%
    22:00 +12°C° 0 mm 2 mps 726 mmHg 77%
    23:00 +10°C° 0 mm 2 mps 726 mmHg 79%

    31 Mayo, Domingo

    Tiempo Temperatura Precipitaciones Viento Presión Humedad
    00:00 +11°C° 0 mm 1 mps 726 mmHg 81%
    01:00 +10°C° 0 mm 1 mps 726 mmHg 83%
    02:00 +10°C° 0 mm 1 mps 726 mmHg 83%
    03:00 +10°C° 0 mm 1 mps 726 mmHg 83%
    04:00 +9°C° 0 mm 1 mps 725 mmHg 83%
    05:00 +10°C° 0 mm 1 mps 726 mmHg 80%
    06:00 +11°C° 0 mm 1 mps 726 mmHg 76%
    07:00 +12°C° 0 mm 2 mps 726 mmHg 73%
    08:00 +13°C° 0.1 mm 2 mps 726 mmHg 68%
    09:00 +14°C° 0.1 mm 2 mps 726 mmHg 63%
    10:00 +16°C° 0.1 mm 2 mps 726 mmHg 58%
    11:00 +16°C° 0.3 mm 3 mps 726 mmHg 57%
    12:00 +17°C° 0.3 mm 3 mps 726 mmHg 55%
    13:00 +17°C° 0.3 mm 4 mps 726 mmHg 54%
    14:00 +17°C° 0.2 mm 4 mps 725 mmHg 52%
    15:00 +17°C° 0.2 mm 4 mps 725 mmHg 51%
    16:00 +17°C° 0.2 mm 3 mps 725 mmHg 49%
    17:00 +17°C° 0.1 mm 3 mps 725 mmHg 53%
    18:00 +16°C° 0.1 mm 3 mps 724 mmHg 57%
    19:00 +14°C° 0.1 mm 3 mps 724 mmHg 61%
    20:00 +12°C° 0 mm 3 mps 724 mmHg 68%
    21:00 +11°C° 0 mm 3 mps 725 mmHg 74%
    22:00 +9°C° 0 mm 2 mps 725 mmHg 81%
    23:00 +8°C° 0 mm 2 mps 724 mmHg 82%
    Mostrar más